Coolangatta Observation History
Time Wind Speed Temp Pressure Rel. Hum Rain
03/01:30pm NNE 14-17 kts 27.2°c 1009.6 hPa 68% 0.0mm
03/01:00pm NNE 14-18 kts 27.4°c 1009.9 hPa 67% 0.0mm
03/12:30pm N 14-18 kts 27.4°c 1010.4 hPa 68% 0.0mm
03/12:00pm NNE 13-16 kts 27.4°c 1010.6 hPa 66% 0.0mm
03/11:30am N 14-17 kts 27.2°c 1011.3 hPa 66% 0.0mm
03/11:00am N 12-15 kts 27.7°c 1011.7 hPa 62% 0.0mm
03/10:30am N 12-14 kts 26.8°c 1012.0 hPa 64% 0.0mm
03/10:00am N 9-13 kts 26.8°c 1012.2 hPa 66% 0.0mm
03/09:30am N 10-12 kts 26.6°c 1012.2 hPa 66% 0.0mm
03/09:00am N 10-13 kts 26.3°c 1012.6 hPa 66% 0.2mm
03/08:30am N 9-13 kts 25.8°c 1012.5 hPa 69% 0.2mm
03/08:00am NW 7-10 kts 24.9°c 1012.7 hPa 74% 0.2mm
03/07:30am WNW 5-7 kts 23.8°c 1012.4 hPa 76% 0.2mm
03/07:00am WNW 4-5 kts 22.2°c 1012.2 hPa 88% 0.2mm
03/06:30am W 3-4 kts 20.5°c 1012.1 hPa 95% 0.2mm
03/06:00am CALM 0 kts 20.0°c 1011.9 hPa 95% 0.2mm
03/05:30am CALM 0 kts 19.7°c 1011.9 hPa 93% 0.2mm
03/05:00am CALM 0 kts 20.4°c 1011.7 hPa 95% 0.2mm
03/04:30am WSW 5 kts 20.5°c 1011.8 hPa 95% 0.2mm
03/04:00am W 1-3 kts 20.3°c 1011.7 hPa 93% 0.2mm
03/03:30am WSW 4-5 kts 20.7°c 1012.1 hPa 93% 0.2mm
03/03:00am CALM 0 kts 20.8°c 1012.1 hPa 91% 0.2mm
03/02:30am W 5-6 kts 20.9°c 1012.4 hPa 92% 0.2mm
03/02:00am WSW 5-6 kts 21.3°c 1012.6 hPa 91% 0.2mm
03/01:30am WSW 6-7 kts 21.6°c 1012.7 hPa 91% 0.2mm
03/01:00am WSW 4-6 kts 21.7°c 1012.8 hPa 90% 0.2mm
03/12:30am NW 5-10 kts 23.5°c 1013.2 hPa 83% 0.2mm
03/12:00am CALM 0 kts 22.1°c 1013.5 hPa 89% 0.2mm
Time Wind Speed Temp Pressure Rel. Hum Rain
02/11:30pm WNW 4-6 kts 22.1°c 1013.8 hPa 86% 0.2mm
02/11:00pm N 5-8 kts 23.2°c 1014.1 hPa 80% 0.2mm
02/10:30pm NNE 8-11 kts 24.1°c 1014.1 hPa 77% 0.2mm
02/10:00pm NNE 9-11 kts 24.1°c 1014.0 hPa 77% 0.2mm
02/09:30pm NNE 9-11 kts 24.1°c 1014.1 hPa 77% 0.2mm
02/09:00pm NE 8-11 kts 24.1°c 1014.2 hPa 77% 0.2mm
02/08:30pm NE 8-11 kts 24.0°c 1014.2 hPa 77% 0.2mm
02/08:00pm NE 8-11 kts 24.1°c 1014.4 hPa 77% 0.2mm
02/07:30pm NE 9-12 kts 24.0°c 1014.5 hPa 78% 0.2mm
02/07:00pm ENE 9-11 kts 24.1°c 1014.4 hPa 77% 0.2mm
02/06:30pm NE 8-10 kts 24.1°c 1014.4 hPa 77% 0.2mm
02/06:00pm NE 10-13 kts 24.4°c 1014.0 hPa 75% 0.2mm
02/05:30pm NE 6-8 kts 24.6°c 1014.2 hPa 77% 0.2mm
02/05:00pm NE 5-7 kts 24.5°c 1014.1 hPa 69% 0.2mm
02/04:30pm NNE 6-9 kts 24.0°c 1014.2 hPa 73% 0.2mm
02/04:00pm ENE 7-9 kts 24.2°c 1013.9 hPa 70% 0.2mm
02/03:30pm ENE 10-12 kts 24.2°c 1013.8 hPa 75% 0.2mm
02/03:00pm ENE 11-13 kts 26.0°c 1013.5 hPa 69% 0.2mm
02/02:30pm NE 7-9 kts 26.1°c 1013.8 hPa 61% 0.2mm
02/02:00pm NE 8-11 kts 25.4°c 1014.1 hPa 66% 0.2mm
02/01:30pm NNE 7-9 kts 24.6°c 1014.5 hPa 73% 0.2mm
02/01:00pm ENE 10-13 kts 25.1°c 1014.8 hPa 66% 0.2mm
02/12:30pm E 11-16 kts 24.9°c 1015.0 hPa 71% 0.2mm
02/12:00pm ENE 9-11 kts 25.1°c 1015.3 hPa 71% 0.2mm
02/11:30am ENE 10-13 kts 25.1°c 1015.5 hPa 67% 0.2mm
02/11:00am ENE 13-16 kts 26.1°c 1015.9 hPa 67% 0.2mm
02/10:30am SE 6-10 kts 25.5°c 1016.1 hPa 66% 0.2mm
02/10:00am SSE 5-9 kts 25.4°c 1016.7 hPa 66% 0.2mm
02/09:30am SSW 7-9 kts 25.3°c 1016.8 hPa 68% 0.2mm
02/09:00am SSW 7-11 kts 24.9°c 1016.8 hPa 69% 0.8mm
02/08:30am S 7-11 kts 24.5°c 1016.8 hPa 68% 0.8mm
02/08:00am S 7-10 kts 23.7°c 1016.7 hPa 74% 0.8mm
02/07:30am S 4-6 kts 23.1°c 1016.5 hPa 83% 0.8mm
02/07:00am CALM 0 kts 21.0°c 1016.5 hPa 91% 0.8mm
02/06:30am CALM 0-3 kts 20.0°c 1016.4 hPa 92% 0.8mm
02/06:00am SW 4-6 kts 19.6°c 1016.2 hPa 93% 0.8mm
02/05:30am WSW 5 kts 19.4°c 1016.2 hPa 93% 0.8mm
02/05:00am SSW 4 kts 19.3°c 1015.9 hPa 92% 0.8mm
02/04:30am SW 5-6 kts 19.9°c 1015.7 hPa 92% 0.8mm
02/04:00am S 4-5 kts 19.6°c 1015.7 hPa 93% 0.8mm
02/03:30am SW 5 kts 19.7°c 1015.8 hPa 92% 0.8mm
02/03:00am S 1-4 kts 19.6°c 1015.8 hPa 92% 0.8mm
02/02:30am SW 3-4 kts 20.1°c 1016.0 hPa 91% 0.8mm
02/02:00am WSW 6-7 kts 20.3°c 1016.4 hPa 89% 0.8mm
02/01:30am S 8-12 kts 20.8°c 1016.8 hPa 87% 0.8mm
02/01:00am S 7-11 kts 21.3°c 1017.1 hPa 84% 0.0mm
02/12:30am SW 6-7 kts 20.7°c 1017.2 hPa 86% 0.0mm
02/12:00am SW 5-6 kts 20.3°c 1017.3 hPa 88% 0.0mm
Time Wind Speed Temp Pressure Rel. Hum Rain
01/11:30pm SW 4-5 kts 20.4°c 1017.4 hPa 86% 0.0mm
01/11:00pm SW 5-7 kts 20.8°c 1017.6 hPa 86% 0.0mm
01/10:30pm SW 4-6 kts 20.2°c 1017.7 hPa 88% 0.0mm
01/10:00pm SSW 1-4 kts 20.9°c 1017.8 hPa 86% 0.0mm
01/09:30pm SSW 3-4 kts 21.6°c 1017.7 hPa 81% 0.0mm
01/09:00pm SSW 2-5 kts 21.1°c 1017.9 hPa 84% 0.0mm
01/08:30pm SSW 4-5 kts 22.3°c 1017.8 hPa 80% 0.0mm
01/08:00pm SSW 5-7 kts 22.3°c 1017.7 hPa 78% 0.0mm
01/07:30pm SSW 5-6 kts 22.6°c 1017.4 hPa 79% 0.0mm
01/07:00pm S 5-6 kts 22.6°c 1017.4 hPa 77% 0.0mm
01/06:30pm SSE 7-9 kts 23.9°c 1017.0 hPa 73% 0.0mm
01/06:00pm SSE 6-10 kts 23.5°c 1016.9 hPa 72% 0.0mm
01/05:30pm SSE 8-12 kts 24.2°c 1016.5 hPa 69% 0.0mm
01/05:00pm SE 12-15 kts 25.1°c 1016.3 hPa 65% 0.0mm
01/04:30pm SE 13-16 kts 26.0°c 1016.1 hPa 61% 0.0mm
01/04:00pm SE 12-17 kts 26.6°c 1015.8 hPa 61% 0.0mm
01/03:30pm SE 13-17 kts 26.3°c 1015.6 hPa 60% 0.0mm
01/03:00pm SE 15-18 kts 26.9°c 1015.5 hPa 59% 0.0mm
01/02:30pm SE 15-20 kts 27.1°c 1015.5 hPa 60% 0.0mm
01/02:00pm ESE 15-19 kts 27.7°c 1015.7 hPa 57% 0.0mm
01/01:30pm SE 13-17 kts 27.9°c 1016.1 hPa 58% 0.0mm
01/01:00pm SE 14-19 kts 27.9°c 1016.3 hPa 53% 0.0mm
01/12:30pm SSE 12-17 kts 28.4°c 1016.5 hPa 54% 0.0mm
01/12:00pm SE 13-19 kts 28.0°c 1016.9 hPa 54% 0.0mm
01/11:30am SSE 11-16 kts 26.0°c 1017.3 hPa 55% 0.0mm
01/11:00am S 10-14 kts 26.2°c 1017.5 hPa 61% 0.0mm
01/10:30am S 11-15 kts 26.2°c 1017.9 hPa 61% 0.0mm
01/10:00am S 11-16 kts 26.5°c 1017.9 hPa 60% 0.0mm
01/09:30am S 10-15 kts 25.7°c 1018.0 hPa 67% 0.0mm
01/09:00am S 11-16 kts 25.5°c 1018.0 hPa 68% 0.0mm
01/08:30am S 9-16 kts 25.0°c 1017.9 hPa 69% 0.0mm
01/08:00am SSW 9-14 kts 24.4°c 1017.8 hPa 71% 0.0mm
01/07:30am SSW 8-11 kts 23.5°c 1017.6 hPa 74% 0.0mm
01/07:00am SSW 6-9 kts 22.4°c 1017.5 hPa 79% 0.0mm
01/06:30am SSW 7-10 kts 21.7°c 1017.1 hPa 81% 0.0mm
01/06:00am SSW 7-10 kts 21.5°c 1016.7 hPa 82% 0.0mm
01/05:30am SSW 7-9 kts 21.5°c 1016.6 hPa 82% 0.0mm
01/05:00am SSW 5-8 kts 21.3°c 1016.4 hPa 82% 0.0mm
01/04:30am SSW 7-10 kts 21.5°c 1016.1 hPa 82% 0.0mm
01/04:00am SSW 7-10 kts 21.9°c 1015.9 hPa 81% 0.0mm
01/03:30am SSW 6-8 kts 21.7°c 1015.8 hPa 82% 0.0mm
01/03:00am SSW 7-11 kts 22.2°c 1015.6 hPa 80% 0.0mm
01/02:30am SSW 7-11 kts 22.0°c 1015.6 hPa 79% 0.0mm
01/02:00am SSW 7-12 kts 22.4°c 1015.7 hPa 78% 0.0mm
01/01:30am SSW 8-11 kts 22.7°c 1015.8 hPa 77% 0.0mm
01/01:00am SSW 8-11 kts 22.7°c 1015.9 hPa 78% 0.0mm
01/12:30am SSW 7-11 kts 22.9°c 1016.1 hPa 76% 0.0mm
01/12:00am SSW 7-10 kts 22.9°c 1016.3 hPa 76% 0.0mm